OBJECT A

基本信息
目录编号:
66993
目录名称:
OBJECT A
国际标识:
2025-292A
轨道中心:
EARTH
物体状态:
在轨
发射日期:
2025-12-10 UTC
国别:
中国 (CN)
轨道信息
数据来源: 国际轨道数据
星历时间: 2026-09-05T13:05:21+0800
半长轴: 6924.057km
偏心率: 0.0016397
轨道倾角: 97.626°
近地点辐角: 87.365°
升交点赤经: 323.149°
平近点角: 272.945°
近地点: 534.566km
远地点: 557.274km
周期: 95.565分钟
每日圈数: 15.068218
详细信息
发射场:
JSC
轨道高度:
LEO
数据来源:
AOE Working Group
参考系:
TEME
时间系统:
UTC
历元类型:
SGP4
2D轨道图
3D轨道图
轨道高度分析图
轨道倾角分析图
轨道综合分析图
查看轨道综合分析图